Location: Chakepay
(13.3931°S, 72.1925°W)
Time: 03:26:34
(UTC+00:00)

SL-16 R/B - Pass Details

Date: 15 November 2019
Orbit: 985 x 1007 km, 99.4° (Epoch: 08 December)

Event Time Altitude Azimuth Distance (km) Brightness Sun altitude
Rises 08:34:34 0° 199° (SSW) 3,742 5.7 -22.6°
Reaches altitude 10° 08:38:37 10° 225° (SW) 2,789 4.7 -21.7°
Enters shadow 08:39:53 12° 236° (WSW) 2,632 4.5 -21.4°
